CST,Max TemperatureF,Mean TemperatureF,Min TemperatureF,Max Dew PointF,MeanDew PointF,Min DewpointF,Max Humidity, Mean Humidity, Min Humidity, Max Sea Level PressureIn, Mean Sea Level PressureIn, Min Sea Level PressureIn, Max VisibilityMiles, Mean VisibilityMiles, Min VisibilityMiles, Max Wind SpeedMPH, Mean Wind SpeedMPH, Max Gust SpeedMPH,PrecipitationIn, CloudCover, Events, WindDirDegrees
2012-2-1,48,36,24,36,30,23,100,82,58,30.13,30.08,30.02,10,10,4,8,2,,0.00,0,,262
2012-2-2,46,34,21,37,29,19,100,84,66,30.28,30.22,30.15,10,10,10,8,2,,0.00,0,,103
2012-2-3,35,32,30,34,31,28,100,91,87,30.38,30.34,30.28,10,6,0,22,14,25,0.00,4,Fog,68
2012-2-4,39,32,26,30,27,25,93,86,61,30.40,30.35,30.31,10,7,2,21,15,28,0.00,4,,35
2012-2-5,32,28,24,28,26,23,100,94,80,30.38,30.34,30.27,10,4,0,13,7,,0.00,6,Fog,301
2012-2-6,44,32,21,36,26,19,100,89,66,30.24,30.15,30.08,10,4,0,16,5,22,0.00,5,Fog,250
2012-2-7,28,22,17,25,20,12,86,77,69,30.51,30.42,30.26,10,10,10,22,18,28,0.00,6,,29
2012-2-8,28,16,3,16,9,0,92,74,51,30.52,30.42,30.31,10,10,10,9,3,,0.00,0,,282
2012-2-9,37,24,12,27,19,9,93,82,65,30.28,30.09,29.96,10,9,5,17,8,23,0.00,0,,220
2012-2-10,19,11,3,7,-5,-8,67,56,44,30.52,30.30,30.09,10,10,10,26,23,34,0.00,0,,355
2012-2-11,23,10,-4,-4,-7,-11,71,53,28,30.69,30.62,30.57,10,10,10,20,11,24,0.00,0,,316
2012-2-12,30,14,-2,5,-2,-9,78,57,29,30.53,30.37,30.15,10,10,10,20,6,24,0.00,0,,215
2012-2-13,26,24,19,25,20,9,93,83,50,30.00,29.82,29.72,10,4,0,18,10,25,0.02,8,Fog-Snow,183
2012-2-14,30,21,12,25,18,9,93,88,75,29.79,29.73,29.69,10,6,0,12,3,,0.17,5,Fog,184
2012-2-15,37,24,12,34,24,10,100,89,75,30.05,29.92,29.82,10,5,1,8,4,,0.01,5,,25
2012-2-16,35,22,10,25,18,9,93,81,60,30.20,30.14,30.08,10,10,5,13,6,,0.00,0,,253
2012-2-17,35,25,15,27,19,12,93,79,56,30.21,30.08,29.96,10,9,2,21,9,24,0.00,1,,303
2012-2-18,33,18,3,23,13,1,92,79,60,30.26,30.20,30.14,10,10,10,7,2,,0.00,0,,168
2012-2-19,37,22,8,28,21,7,93,80,65,30.11,30.03,29.96,10,10,10,18,8,,0.00,0,,162
2012-2-20,35,32,30,36,28,25,100,85,75,29.98,29.82,29.63,10,7,1,23,17,29,0.33,7,Rain-Snow,149
2012-2-21,35,32,28,32,27,25,93,81,65,29.74,29.69,29.63,10,10,7,24,15,30,0.00,3,,287
2012-2-22,44,37,30,36,31,25,93,83,66,29.58,29.45,29.40,10,10,10,17,7,18,0.00,1,,297
2012-2-23,33,30,28,30,29,27,93,88,81,29.67,29.46,29.36,10,5,0,22,9,25,0.06,8,Snow,72
2012-2-24,28,22,15,27,18,10,93,83,69,30.16,29.97,29.78,10,9,1,23,14,29,0.00,5,Snow,315
2012-2-25,19,8,-2,16,7,-6,93,81,68,30.26,30.14,29.94,10,10,10,22,10,26,0.01,0,,189
2012-2-26,35,26,17,30,20,12,81,75,65,30.20,29.85,29.58,10,9,3,37,23,43,0.02,1,,264
2012-2-27,23,16,10,18,11,7,92,80,73,30.48,30.39,30.21,10,10,10,21,13,26,0.00,0,,294
2012-2-28,33,30,26,32,28,21,93,87,80,30.28,30.00,29.65,10,6,1,20,12,25,0.86,8,Rain-Snow,135
2012-2-29,37,32,28,37,30,27,100,91,86,29.78,29.41,29.13,10,6,0,26,19,36,0.06,8,Fog-Rain-Snow,290